Time,TemperatureF,DewpointF,PressureIn,WindDirection,WindDirectionDegrees,WindSpeedMPH,WindSpeedGustMPH,Humidity,HourlyPrecipIn,Conditions,Clouds,dailyrainin,SoftwareType,DateUTC
2013-09-05 00:00:00,61.9,58.6,30.03,South,177,0.0,0.0,89,0.00,,,0.00,Wunderground v.1.15,2013-09-05 04:00:00,
2013-09-05 00:01:00,61.8,58.5,30.03,South,177,0.0,0.0,89,0.00,,,0.00,Wunderground v.1.15,2013-09-05 04:01:00,
2013-09-05 00:02:00,61.8,58.5,30.03,South,177,0.0,0.0,89,0.00,,,0.00,Wunderground v.1.15,2013-09-05 04:02:00,
2013-09-05 00:03:00,61.8,58.5,30.03,South,177,0.0,0.0,89,0.00,,,0.00,Wunderground v.1.15,2013-09-05 04:03:00,
2013-09-05 00:04:00,61.8,58.5,30.03,South,177,0.0,0.0,89,0.00,,,0.00,Wunderground v.1.15,2013-09-05 04:04:00,
2013-09-05 00:07:00,61.7,58.4,30.03,South,177,0.0,0.0,89,0.00,,,0.00,Wunderground v.1.15,2013-09-05 04:07:00,
2013-09-05 00:13:00,61.5,58.2,30.03,South,177,0.0,0.0,89,0.00,,,0.00,Wunderground v.1.15,2013-09-05 04:13:00,
2013-09-05 00:19:00,61.4,58.1,30.03,SE,141,0.0,2.0,89,0.00,,,0.00,Wunderground v.1.15,2013-09-05 04:19:00,
2013-09-05 00:21:00,61.3,58.0,30.03,SE,141,0.0,0.0,89,0.00,,,0.00,Wunderground v.1.15,2013-09-05 04:21:00,
2013-09-05 00:27:00,61.2,57.9,30.04,SE,141,0.0,0.0,89,0.00,,,0.00,Wunderground v.1.15,2013-09-05 04:27:00,
2013-09-05 00:33:00,61.1,57.8,30.04,SE,141,0.0,0.0,89,0.00,,,0.00,Wunderground v.1.15,2013-09-05 04:33:00,
2013-09-05 00:38:00,60.8,57.5,30.04,SE,141,0.0,0.0,89,0.00,,,0.00,Wunderground v.1.15,2013-09-05 04:38:00,
2013-09-05 00:43:00,60.7,57.7,30.04,SE,141,0.0,0.0,90,0.00,,,0.00,Wunderground v.1.15,2013-09-05 04:43:00,
2013-09-05 00:49:00,60.5,57.6,30.04,SE,141,0.0,0.0,90,0.00,,,0.00,Wunderground v.1.15,2013-09-05 04:49:00,
2013-09-05 00:55:00,60.3,57.4,30.04,SE,141,0.0,0.0,90,0.00,,,0.00,Wunderground v.1.15,2013-09-05 04:55:00,
2013-09-05 01:00:00,60.2,57.3,30.04,SE,141,0.0,0.0,90,0.00,,,0.00,Wunderground v.1.15,2013-09-05 05:00:00,
2013-09-05 01:05:00,60.0,57.1,30.04,SE,141,0.0,0.0,90,0.00,,,0.00,Wunderground v.1.15,2013-09-05 05:05:00,
2013-09-05 01:11:00,59.8,57.2,30.04,SE,141,0.0,0.0,91,0.00,,,0.00,Wunderground v.1.15,2013-09-05 05:11:00,
2013-09-05 01:17:00,59.6,57.0,30.04,SE,141,0.0,0.0,91,0.00,,,0.00,Wunderground v.1.15,2013-09-05 05:17:00,
2013-09-05 01:23:00,59.5,56.9,30.04,SE,141,0.0,0.0,91,0.00,,,0.00,Wunderground v.1.15,2013-09-05 05:23:00,
2013-09-05 01:29:00,59.4,56.8,30.04,SE,141,0.0,0.0,91,0.00,,,0.00,Wunderground v.1.15,2013-09-05 05:29:00,
2013-09-05 01:35:00,59.3,56.7,30.04,SE,141,0.0,0.0,91,0.00,,,0.00,Wunderground v.1.15,2013-09-05 05:35:00,
2013-09-05 01:41:00,59.1,56.5,30.04,SE,141,0.0,0.0,91,0.00,,,0.00,Wunderground v.1.15,2013-09-05 05:41:00,
2013-09-05 01:47:00,59.0,56.7,30.03,SE,141,0.0,0.0,92,0.00,,,0.00,Wunderground v.1.15,2013-09-05 05:47:00,
2013-09-05 01:53:00,58.9,56.6,30.03,SE,141,0.0,0.0,92,0.00,,,0.00,Wunderground v.1.15,2013-09-05 05:53:00,
2013-09-05 01:59:00,58.6,56.0,30.03,SE,141,0.0,0.0,91,0.00,,,0.00,Wunderground v.1.15,2013-09-05 05:59:00,
2013-09-05 02:05:00,58.5,56.2,30.03,SE,141,0.0,0.0,92,0.00,,,0.00,Wunderground v.1.15,2013-09-05 06:05:00,
2013-09-05 02:10:00,58.4,56.1,30.03,SE,141,0.0,0.0,92,0.00,,,0.00,Wunderground v.1.15,2013-09-05 06:10:00,
2013-09-05 02:15:00,58.3,56.0,30.03,SE,141,0.0,0.0,92,0.00,,,0.00,Wunderground v.1.15,2013-09-05 06:15:00,
2013-09-05 02:21:00,58.2,55.9,30.03,SE,141,0.0,0.0,92,0.00,,,0.00,Wunderground v.1.15,2013-09-05 06:21:00,
2013-09-05 02:27:00,58.0,55.7,30.03,SE,141,0.0,0.0,92,0.00,,,0.00,Wunderground v.1.15,2013-09-05 06:27:00,
2013-09-05 02:33:00,57.8,55.5,30.03,SE,141,0.0,0.0,92,0.00,,,0.00,Wunderground v.1.15,2013-09-05 06:33:00,
2013-09-05 02:39:00,57.7,55.4,30.03,SE,141,0.0,0.0,92,0.00,,,0.00,Wunderground v.1.15,2013-09-05 06:39:00,
2013-09-05 02:44:00,57.6,55.3,30.02,SE,141,0.0,0.0,92,0.00,,,0.00,Wunderground v.1.15,2013-09-05 06:44:00,
2013-09-05 02:50:00,57.6,55.3,30.02,SSE,152,0.0,0.0,92,0.00,,,0.00,Wunderground v.1.15,2013-09-05 06:50:00,
2013-09-05 02:56:00,57.4,55.1,30.02,SSE,152,0.0,0.0,92,0.00,,,0.00,Wunderground v.1.15,2013-09-05 06:56:00,
2013-09-05 03:01:00,57.2,55.2,30.02,SSE,152,0.0,0.0,93,0.00,,,0.00,Wunderground v.1.15,2013-09-05 07:01:00,
2013-09-05 03:07:00,57.1,55.1,30.02,SSE,152,0.0,0.0,93,0.00,,,0.00,Wunderground v.1.15,2013-09-05 07:07:00,
2013-09-05 03:13:00,56.9,54.6,30.02,SSE,152,0.0,0.0,92,0.00,,,0.00,Wunderground v.1.15,2013-09-05 07:13:00,
2013-09-05 03:19:00,56.8,54.8,30.02,SSE,152,0.0,0.0,93,0.00,,,0.00,Wunderground v.1.15,2013-09-05 07:19:00,
2013-09-05 03:25:00,56.7,54.7,30.02,SSE,152,0.0,0.0,93,0.00,,,0.00,Wunderground v.1.15,2013-09-05 07:25:00,
2013-09-05 03:31:00,56.3,54.0,30.02,SE,143,0.0,0.0,92,0.00,,,0.00,Wunderground v.1.15,2013-09-05 07:31:00,
2013-09-05 03:37:00,55.9,53.9,30.03,SE,143,0.0,0.0,93,0.00,,,0.00,Wunderground v.1.15,2013-09-05 07:37:00,
2013-09-05 03:43:00,55.7,53.7,30.03,SE,143,0.0,0.0,93,0.00,,,0.00,Wunderground v.1.15,2013-09-05 07:43:00,
2013-09-05 03:49:00,55.4,53.4,30.03,SE,143,0.0,0.0,93,0.00,,,0.00,Wunderground v.1.15,2013-09-05 07:49:00,
2013-09-05 03:55:00,55.3,53.3,30.03,SE,143,0.0,0.0,93,0.00,,,0.00,Wunderground v.1.15,2013-09-05 07:55:00,
2013-09-05 04:01:00,55.1,53.1,30.03,SE,143,0.0,0.0,93,0.00,,,0.00,Wunderground v.1.15,2013-09-05 08:01:00,
2013-09-05 04:07:00,55.1,53.1,30.03,SE,143,0.0,0.0,93,0.00,,,0.00,Wunderground v.1.15,2013-09-05 08:07:00,
2013-09-05 04:13:00,55.0,53.0,30.03,SE,143,0.0,0.0,93,0.00,,,0.00,Wunderground v.1.15,2013-09-05 08:13:00,
2013-09-05 04:19:00,55.0,53.3,30.04,SE,143,0.0,0.0,94,0.00,,,0.00,Wunderground v.1.15,2013-09-05 08:19:00,
2013-09-05 04:25:00,54.8,52.8,30.03,SE,143,0.0,0.0,93,0.00,,,0.00,Wunderground v.1.15,2013-09-05 08:25:00,
2013-09-05 04:31:00,54.8,53.1,30.03,SE,143,0.0,0.0,94,0.00,,,0.00,Wunderground v.1.15,2013-09-05 08:31:00,
2013-09-05 04:36:00,54.7,53.0,30.03,SE,143,0.0,0.0,94,0.00,,,0.00,Wunderground v.1.15,2013-09-05 08:36:00,
2013-09-05 04:42:00,54.8,53.1,30.03,SE,143,0.0,0.0,94,0.00,,,0.00,Wunderground v.1.15,2013-09-05 08:42:00,
2013-09-05 04:48:00,54.7,53.0,30.03,SE,143,0.0,0.0,94,0.00,,,0.00,Wunderground v.1.15,2013-09-05 08:48:00,
2013-09-05 04:54:00,54.6,52.9,30.03,SE,143,0.0,0.0,94,0.00,,,0.00,Wunderground v.1.15,2013-09-05 08:54:00,
2013-09-05 05:00:00,54.6,52.9,30.03,SE,143,0.0,0.0,94,0.00,,,0.00,Wunderground v.1.15,2013-09-05 09:00:00,
2013-09-05 05:06:00,54.4,52.4,30.03,SE,143,0.0,0.0,93,0.00,,,0.00,Wunderground v.1.15,2013-09-05 09:06:00,
2013-09-05 05:12:00,54.2,52.5,30.03,SE,143,0.0,0.0,94,0.00,,,0.00,Wunderground v.1.15,2013-09-05 09:12:00,
2013-09-05 05:17:00,54.0,52.3,30.03,SE,143,0.0,0.0,94,0.00,,,0.00,Wunderground v.1.15,2013-09-05 09:17:00,
2013-09-05 05:23:00,53.9,52.2,30.03,SE,143,0.0,0.0,94,0.00,,,0.00,Wunderground v.1.15,2013-09-05 09:23:00,
2013-09-05 05:28:00,53.6,51.6,30.04,SE,143,0.0,0.0,93,0.00,,,0.00,Wunderground v.1.15,2013-09-05 09:28:00,
2013-09-05 05:34:00,53.3,51.3,30.04,SE,143,0.0,0.0,93,0.00,,,0.00,Wunderground v.1.15,2013-09-05 09:34:00,
2013-09-05 05:39:00,53.3,51.6,30.04,SE,143,0.0,0.0,94,0.00,,,0.00,Wunderground v.1.15,2013-09-05 09:39:00,
2013-09-05 05:45:00,53.2,51.5,30.04,SE,143,0.0,0.0,94,0.00,,,0.00,Wunderground v.1.15,2013-09-05 09:45:00,
2013-09-05 05:51:00,53.3,51.6,30.04,SE,143,0.0,0.0,94,0.00,,,0.00,Wunderground v.1.15,2013-09-05 09:51:00,
2013-09-05 05:56:00,53.5,51.8,30.05,SE,143,0.0,0.0,94,0.00,,,0.00,Wunderground v.1.15,2013-09-05 09:56:00,
2013-09-05 06:01:00,53.6,51.9,30.05,SE,143,0.0,0.0,94,0.00,,,0.00,Wunderground v.1.15,2013-09-05 10:01:00,
2013-09-05 06:06:00,53.4,51.7,30.05,SE,143,0.0,0.0,94,0.00,,,0.00,Wunderground v.1.15,2013-09-05 10:06:00,
2013-09-05 06:12:00,53.5,51.8,30.05,SE,143,0.0,0.0,94,0.00,,,0.00,Wunderground v.1.15,2013-09-05 10:12:00,
2013-09-05 06:18:00,53.4,51.7,30.06,SE,143,0.0,0.0,94,0.00,,,0.00,Wunderground v.1.15,2013-09-05 10:18:00,
2013-09-05 06:24:00,53.2,51.5,30.06,SE,143,0.0,0.0,94,0.00,,,0.00,Wunderground v.1.15,2013-09-05 10:24:00,
2013-09-05 06:30:00,53.2,51.5,30.06,SE,143,0.0,0.0,94,0.00,,,0.00,Wunderground v.1.15,2013-09-05 10:30:00,
2013-09-05 06:36:00,53.3,51.6,30.06,SE,143,0.0,0.0,94,0.00,,,0.00,Wunderground v.1.15,2013-09-05 10:36:00,
2013-09-05 06:41:00,53.3,51.6,30.06,SE,143,0.0,0.0,94,0.00,,,0.00,Wunderground v.1.15,2013-09-05 10:41:00,
2013-09-05 06:47:00,53.3,51.6,30.06,SE,143,0.0,0.0,94,0.00,,,0.00,Wunderground v.1.15,2013-09-05 10:47:00,
2013-09-05 06:53:00,53.4,51.7,30.06,SE,143,0.0,0.0,94,0.00,,,0.00,Wunderground v.1.15,2013-09-05 10:53:00,
2013-09-05 06:59:00,53.3,51.6,30.06,SE,143,0.0,0.0,94,0.00,,,0.00,Wunderground v.1.15,2013-09-05 10:59:00,
2013-09-05 07:05:00,53.2,51.5,30.05,SE,143,0.0,0.0,94,0.00,,,0.00,Wunderground v.1.15,2013-09-05 11:05:00,
2013-09-05 07:11:00,53.3,51.6,30.05,SE,143,0.0,0.0,94,0.00,,,0.00,Wunderground v.1.15,2013-09-05 11:11:00,
2013-09-05 07:16:00,53.5,51.8,30.05,SE,143,0.0,0.0,94,0.00,,,0.00,Wunderground v.1.15,2013-09-05 11:16:00,
2013-09-05 07:22:00,53.9,52.2,30.05,SE,143,0.0,0.0,94,0.00,,,0.00,Wunderground v.1.15,2013-09-05 11:22:00,
2013-09-05 07:28:00,54.3,52.6,30.05,SE,143,0.0,0.0,94,0.00,,,0.01,Wunderground v.1.15,2013-09-05 11:28:00,
2013-09-05 07:33:00,54.5,52.5,30.06,SE,143,0.0,0.0,93,0.00,,,0.01,Wunderground v.1.15,2013-09-05 11:33:00,
2013-09-05 07:39:00,54.7,52.7,30.05,SE,143,0.0,0.0,93,0.00,,,0.01,Wunderground v.1.15,2013-09-05 11:39:00,
2013-09-05 07:44:00,54.9,52.6,30.05,SE,143,0.0,0.0,92,0.00,,,0.01,Wunderground v.1.15,2013-09-05 11:44:00,
2013-09-05 07:50:00,55.0,52.7,30.05,SE,145,0.0,0.0,92,0.00,,,0.01,Wunderground v.1.15,2013-09-05 11:50:00,
2013-09-05 07:55:00,55.1,52.5,30.05,SE,145,0.0,0.0,91,0.00,,,0.01,Wunderground v.1.15,2013-09-05 11:55:00,
2013-09-05 08:01:00,55.5,52.9,30.05,SE,145,0.0,0.0,91,0.00,,,0.01,Wunderground v.1.15,2013-09-05 12:01:00,
2013-09-05 08:06:00,55.8,52.9,30.05,SE,146,0.0,0.0,90,0.00,,,0.01,Wunderground v.1.15,2013-09-05 12:06:00,
2013-09-05 08:11:00,56.2,53.3,30.05,SE,146,0.0,0.0,90,0.00,,,0.01,Wunderground v.1.15,2013-09-05 12:11:00,
2013-09-05 08:17:00,56.8,53.9,30.05,SE,146,0.0,0.0,90,0.00,,,0.01,Wunderground v.1.15,2013-09-05 12:17:00,
2013-09-05 08:23:00,57.6,54.4,30.05,SE,146,0.0,0.0,89,0.00,,,0.01,Wunderground v.1.15,2013-09-05 12:23:00,
2013-09-05 08:28:00,58.4,55.2,30.05,SSE,147,0.0,0.0,89,0.00,,,0.01,Wunderground v.1.15,2013-09-05 12:28:00,
2013-09-05 08:34:00,59.9,56.0,30.06,SSE,147,0.0,0.0,87,0.00,,,0.01,Wunderground v.1.15,2013-09-05 12:34:00,
2013-09-05 08:40:00,61.3,56.4,30.06,SSE,147,0.0,0.0,84,0.00,,,0.01,Wunderground v.1.15,2013-09-05 12:40:00,
2013-09-05 08:45:00,62.4,56.8,30.06,SSE,147,0.0,0.0,82,0.00,,,0.01,Wunderground v.1.15,2013-09-05 12:45:00,
2013-09-05 08:51:00,62.9,56.6,30.06,SSE,147,0.0,0.0,80,0.00,,,0.01,Wunderground v.1.15,2013-09-05 12:51:00,
2013-09-05 08:56:00,63.4,57.5,30.06,SSE,147,0.0,0.0,81,0.00,,,0.01,Wunderground v.1.15,2013-09-05 12:56:00,
2013-09-05 09:02:00,64.2,57.5,30.06,SSE,147,0.0,0.0,79,0.00,,,0.01,Wunderground v.1.15,2013-09-05 13:02:00,
2013-09-05 09:08:00,64.4,58.4,30.06,SE,146,0.0,0.0,81,0.00,,,0.01,Wunderground v.1.15,2013-09-05 13:08:00,
2013-09-05 09:13:00,65.3,58.3,30.06,SE,146,0.0,0.0,78,0.00,,,0.01,Wunderground v.1.15,2013-09-05 13:13:00,
2013-09-05 09:19:00,66.2,58.0,30.06,SE,146,0.0,0.0,75,0.00,,,0.01,Wunderground v.1.15,2013-09-05 13:19:00,
2013-09-05 09:24:00,66.5,57.6,30.06,SE,146,0.0,0.0,73,0.00,,,0.01,Wunderground v.1.15,2013-09-05 13:24:00,
2013-09-05 09:29:00,67.4,58.4,30.06,SE,146,0.0,0.0,73,0.00,,,0.01,Wunderground v.1.15,2013-09-05 13:29:00,
2013-09-05 09:35:00,68.2,57.6,30.06,SSE,147,0.0,0.0,69,0.00,,,0.01,Wunderground v.1.15,2013-09-05 13:35:00,
2013-09-05 09:41:00,68.5,56.7,30.06,SSE,155,0.0,0.0,66,0.00,,,0.01,Wunderground v.1.15,2013-09-05 13:41:00,
2013-09-05 09:47:00,69.0,58.0,30.06,SSE,155,0.0,0.0,68,0.00,,,0.01,Wunderground v.1.15,2013-09-05 13:47:00,
2013-09-05 09:52:00,69.3,56.6,30.06,SSW,201,0.0,0.0,64,0.00,,,0.01,Wunderground v.1.15,2013-09-05 13:52:00,
2013-09-05 09:58:00,69.2,56.5,30.06,SW,220,0.0,0.0,64,0.00,,,0.01,Wunderground v.1.15,2013-09-05 13:58:00,
2013-09-05 10:03:00,69.8,57.9,30.06,SSW,208,0.0,0.0,66,0.00,,,0.01,Wunderground v.1.15,2013-09-05 14:03:00,
2013-09-05 10:08:00,70.2,57.9,30.05,South,183,1.0,3.0,65,0.00,,,0.01,Wunderground v.1.15,2013-09-05 14:08:00,
2013-09-05 10:14:00,70.3,58.0,30.05,SW,219,2.0,4.0,65,0.00,,,0.01,Wunderground v.1.15,2013-09-05 14:14:00,
2013-09-05 10:19:00,70.3,58.4,30.05,SW,216,2.0,5.0,66,0.00,,,0.01,Wunderground v.1.15,2013-09-05 14:19:00,
2013-09-05 10:24:00,71.0,58.6,30.05,SSE,158,1.0,3.0,65,0.00,,,0.01,Wunderground v.1.15,2013-09-05 14:24:00,
2013-09-05 10:29:00,71.4,58.6,30.05,South,191,1.0,4.0,64,0.00,,,0.01,Wunderground v.1.15,2013-09-05 14:29:00,
2013-09-05 10:34:00,72.1,58.8,30.05,SSE,160,1.0,2.0,63,0.00,,,0.01,Wunderground v.1.15,2013-09-05 14:34:00,
2013-09-05 10:40:00,72.7,59.8,30.05,SW,217,0.0,0.0,64,0.00,,,0.01,Wunderground v.1.15,2013-09-05 14:40:00,
2013-09-05 10:45:00,73.3,59.0,30.05,SSW,204,0.0,0.0,61,0.00,,,0.01,Wunderground v.1.15,2013-09-05 14:45:00,
2013-09-05 10:50:00,73.6,59.8,30.05,NNW,342,0.0,0.0,62,0.00,,,0.01,Wunderground v.1.15,2013-09-05 14:50:00,
2013-09-05 10:56:00,73.5,59.2,30.05,West,266,0.0,3.0,61,0.00,,,0.01,Wunderground v.1.15,2013-09-05 14:56:00,
2013-09-05 11:01:00,74.1,60.7,30.05,NE,53,0.0,1.0,63,0.00,,,0.01,Wunderground v.1.15,2013-09-05 15:01:00,
2013-09-05 11:06:00,74.0,59.2,30.05,NNE,18,1.0,3.0,60,0.00,,,0.01,Wunderground v.1.15,2013-09-05 15:06:00,
2013-09-05 11:11:00,74.4,59.1,30.04,NW,316,1.0,1.0,59,0.00,,,0.01,Wunderground v.1.15,2013-09-05 15:11:00,
2013-09-05 11:16:00,75.6,60.7,30.05,SSE,164,1.0,2.0,60,0.00,,,0.01,Wunderground v.1.15,2013-09-05 15:16:00,
2013-09-05 11:21:00,76.0,59.7,30.05,WSW,246,2.0,2.0,57,0.00,,,0.01,Wunderground v.1.15,2013-09-05 15:21:00,
2013-09-05 11:26:00,75.9,57.0,30.05,WSW,252,2.0,4.0,52,0.00,,,0.01,Wunderground v.1.15,2013-09-05 15:26:00,
2013-09-05 11:32:00,76.2,58.3,30.05,WSW,256,2.0,2.0,54,0.00,,,0.01,Wunderground v.1.15,2013-09-05 15:32:00,
2013-09-05 11:37:00,76.2,58.3,30.05,NW,318,2.0,4.0,54,0.00,,,0.01,Wunderground v.1.15,2013-09-05 15:37:00,
2013-09-05 11:43:00,75.9,58.1,30.05,SW,231,2.0,5.0,54,0.00,,,0.01,Wunderground v.1.15,2013-09-05 15:43:00,
2013-09-05 11:49:00,76.8,58.9,30.04,WSW,246,2.0,5.0,54,0.00,,,0.01,Wunderground v.1.15,2013-09-05 15:49:00,
2013-09-05 11:54:00,77.1,58.6,30.04,SSW,199,2.0,4.0,53,0.00,,,0.01,Wunderground v.1.15,2013-09-05 15:54:00,
2013-09-05 12:00:00,77.2,59.8,30.04,NW,319,2.0,2.0,55,0.00,,,0.01,Wunderground v.1.15,2013-09-05 16:00:00,
2013-09-05 12:06:00,76.9,59.5,30.04,West,279,2.0,5.0,55,0.00,,,0.01,Wunderground v.1.15,2013-09-05 16:06:00,
2013-09-05 12:11:00,76.8,58.9,30.04,SW,233,4.0,5.0,54,0.00,,,0.01,Wunderground v.1.15,2013-09-05 16:11:00,
2013-09-05 12:17:00,77.2,59.8,30.04,SSE,151,3.0,5.0,55,0.00,,,0.01,Wunderground v.1.15,2013-09-05 16:17:00,
2013-09-05 12:22:00,77.6,59.1,30.04,WSW,246,2.0,4.0,53,0.00,,,0.01,Wunderground v.1.15,2013-09-05 16:22:00,
2013-09-05 12:28:00,77.8,59.8,30.04,West,278,3.0,4.0,54,0.00,,,0.01,Wunderground v.1.15,2013-09-05 16:28:00,
2013-09-05 12:33:00,77.7,59.7,30.04,WSW,247,2.0,3.0,54,0.00,,,0.01,Wunderground v.1.15,2013-09-05 16:33:00,
2013-09-05 12:38:00,78.0,58.9,30.04,WSW,250,3.0,3.0,52,0.00,,,0.01,Wunderground v.1.15,2013-09-05 16:38:00,
2013-09-05 12:43:00,78.3,59.8,30.03,South,174,2.0,2.0,53,0.00,,,0.01,Wunderground v.1.15,2013-09-05 16:43:00,
2013-09-05 12:48:00,78.7,59.0,30.03,South,191,2.0,6.0,51,0.00,,,0.01,Wunderground v.1.15,2013-09-05 16:48:00,
2013-09-05 12:53:00,79.0,59.9,30.03,SSW,204,2.0,2.0,52,0.00,,,0.01,Wunderground v.1.15,2013-09-05 16:53:00,
2013-09-05 12:58:00,79.4,60.2,30.03,SW,233,1.0,3.0,52,0.00,,,0.01,Wunderground v.1.15,2013-09-05 16:58:00,
2013-09-05 13:03:00,79.5,59.2,30.03,NW,320,2.0,2.0,50,0.00,,,0.01,Wunderground v.1.15,2013-09-05 17:03:00,
2013-09-05 13:08:00,79.2,59.5,30.03,NNW,347,2.0,3.0,51,0.00,,,0.01,Wunderground v.1.15,2013-09-05 17:08:00,
2013-09-05 13:14:00,78.9,60.3,30.03,WSW,249,2.0,5.0,53,0.00,,,0.01,Wunderground v.1.15,2013-09-05 17:14:00,
2013-09-05 13:19:00,79.7,60.0,30.03,SW,228,2.0,6.0,51,0.00,,,0.01,Wunderground v.1.15,2013-09-05 17:19:00,
2013-09-05 13:25:00,79.7,60.0,30.03,South,186,2.0,4.0,51,0.00,,,0.01,Wunderground v.1.15,2013-09-05 17:25:00,
2013-09-05 13:31:00,80.2,60.4,30.03,ESE,108,2.0,3.0,51,0.00,,,0.01,Wunderground v.1.15,2013-09-05 17:31:00,
2013-09-05 13:36:00,80.1,60.9,30.03,SSE,158,1.0,4.0,52,0.00,,,0.01,Wunderground v.1.15,2013-09-05 17:36:00,
2013-09-05 13:42:00,79.9,61.2,30.02,ESE,110,2.0,5.0,53,0.00,,,0.01,Wunderground v.1.15,2013-09-05 17:42:00,
2013-09-05 13:47:00,78.8,60.7,30.02,SE,138,4.0,11.0,54,0.00,,,0.01,Wunderground v.1.15,2013-09-05 17:47:00,
2013-09-05 13:53:00,78.8,61.3,30.02,SSW,200,5.0,6.0,55,0.00,,,0.01,Wunderground v.1.15,2013-09-05 17:53:00,
2013-09-05 13:59:00,80.1,61.4,30.02,SSW,202,4.0,7.0,53,0.00,,,0.01,Wunderground v.1.15,2013-09-05 17:59:00,
2013-09-05 14:04:00,80.9,61.1,30.02,SW,216,3.0,6.0,51,0.00,,,0.01,Wunderground v.1.15,2013-09-05 18:04:00,
2013-09-05 14:09:00,81.1,61.3,30.01,WNW,295,2.0,6.0,51,0.00,,,0.01,Wunderground v.1.15,2013-09-05 18:09:00,
2013-09-05 14:14:00,81.4,62.1,30.01,SSW,193,1.0,3.0,52,0.00,,,0.01,Wunderground v.1.15,2013-09-05 18:14:00,
2013-09-05 14:19:00,81.9,61.4,30.01,South,187,1.0,3.0,50,0.00,,,0.01,Wunderground v.1.15,2013-09-05 18:19:00,
2013-09-05 14:24:00,81.8,60.8,30.01,WSW,258,3.0,6.0,49,0.00,,,0.01,Wunderground v.1.15,2013-09-05 18:24:00,
2013-09-05 14:30:00,81.6,61.2,30.00,West,270,4.0,4.0,50,0.00,,,0.01,Wunderground v.1.15,2013-09-05 18:30:00,
2013-09-05 14:36:00,81.2,61.9,30.00,ENE,60,3.0,4.0,52,0.00,,,0.01,Wunderground v.1.15,2013-09-05 18:36:00,
2013-09-05 14:42:00,81.2,61.9,30.00,ENE,73,2.0,5.0,52,0.00,,,0.01,Wunderground v.1.15,2013-09-05 18:42:00,
2013-09-05 14:48:00,81.3,61.4,30.00,NNW,328,2.0,5.0,51,0.00,,,0.01,Wunderground v.1.15,2013-09-05 18:48:00,
2013-09-05 14:54:00,81.6,61.2,30.00,SW,235,3.0,7.0,50,0.00,,,0.01,Wunderground v.1.15,2013-09-05 18:54:00,
2013-09-05 14:59:00,82.0,61.0,30.00,SW,221,3.0,7.0,49,0.00,,,0.01,Wunderground v.1.15,2013-09-05 18:59:00,
2013-09-05 15:05:00,82.1,61.6,30.00,South,184,3.0,5.0,50,0.00,,,0.01,Wunderground v.1.15,2013-09-05 19:05:00,
2013-09-05 15:10:00,82.1,61.0,29.99,South,182,3.0,3.0,49,0.00,,,0.01,Wunderground v.1.15,2013-09-05 19:10:00,
2013-09-05 15:16:00,82.1,61.0,29.99,North,350,2.0,3.0,49,0.00,,,0.01,Wunderground v.1.15,2013-09-05 19:16:00,
2013-09-05 15:22:00,81.4,61.5,29.99,NNE,23,2.0,4.0,51,0.00,,,0.01,Wunderground v.1.15,2013-09-05 19:22:00,
2013-09-05 15:28:00,81.3,62.0,29.98,ENE,58,2.0,4.0,52,0.00,,,0.01,Wunderground v.1.15,2013-09-05 19:28:00,
2013-09-05 15:34:00,81.8,61.9,29.98,West,280,1.0,2.0,51,0.00,,,0.01,Wunderground v.1.15,2013-09-05 19:34:00,
2013-09-05 15:40:00,82.7,61.0,29.98,SW,214,2.0,4.0,48,0.00,,,0.01,Wunderground v.1.15,2013-09-05 19:40:00,
2013-09-05 15:45:00,82.8,61.1,29.98,SW,233,3.0,6.0,48,0.00,,,0.01,Wunderground v.1.15,2013-09-05 19:45:00,
2013-09-05 15:51:00,83.0,61.3,29.98,WSW,242,3.0,6.0,48,0.00,,,0.01,Wunderground v.1.15,2013-09-05 19:51:00,
2013-09-05 15:56:00,83.4,61.7,29.97,SSW,197,4.0,9.0,48,0.00,,,0.01,Wunderground v.1.15,2013-09-05 19:56:00,
2013-09-05 16:01:00,83.8,60.2,29.97,South,187,5.0,5.0,45,0.00,,,0.01,Wunderground v.1.15,2013-09-05 20:01:00,
2013-09-05 16:07:00,83.8,61.4,29.97,WNW,292,3.0,5.0,47,0.00,,,0.01,Wunderground v.1.15,2013-09-05 20:07:00,
2013-09-05 16:13:00,83.8,63.7,29.97,ENE,67,3.0,3.0,51,0.00,,,0.01,Wunderground v.1.15,2013-09-05 20:13:00,
2013-09-05 16:19:00,83.4,62.2,29.98,NNE,13,2.0,4.0,49,0.00,,,0.01,Wunderground v.1.15,2013-09-05 20:19:00,
2013-09-05 16:25:00,82.9,63.5,29.98,NNE,25,2.0,4.0,52,0.00,,,0.01,Wunderground v.1.15,2013-09-05 20:25:00,
2013-09-05 16:31:00,82.9,61.8,29.98,North,359,2.0,4.0,49,0.00,,,0.01,Wunderground v.1.15,2013-09-05 20:31:00,
2013-09-05 16:37:00,82.8,59.9,29.98,NW,311,3.0,6.0,46,0.00,,,0.01,Wunderground v.1.15,2013-09-05 20:37:00,
2013-09-05 16:43:00,82.9,60.6,29.98,NNW,339,4.0,4.0,47,0.00,,,0.01,Wunderground v.1.15,2013-09-05 20:43:00,
2013-09-05 16:48:00,83.3,61.6,29.97,NNE,15,3.0,4.0,48,0.00,,,0.01,Wunderground v.1.15,2013-09-05 20:48:00,
2013-09-05 16:54:00,83.4,59.8,29.98,NW,307,3.0,6.0,45,0.00,,,0.01,Wunderground v.1.15,2013-09-05 20:54:00,
2013-09-05 17:00:00,82.7,58.6,29.97,NNW,330,5.0,5.0,44,0.00,,,0.01,Wunderground v.1.15,2013-09-05 21:00:00,
2013-09-05 17:05:00,82.8,58.0,29.98,WNW,300,5.0,6.0,43,0.00,,,0.01,Wunderground v.1.15,2013-09-05 21:05:00,
2013-09-05 17:11:00,82.9,58.7,29.97,West,264,5.0,7.0,44,0.00,,,0.01,Wunderground v.1.15,2013-09-05 21:11:00,
2013-09-05 17:17:00,83.0,58.8,29.98,WNW,291,4.0,7.0,44,0.00,,,0.01,Wunderground v.1.15,2013-09-05 21:17:00,
2013-09-05 17:23:00,82.7,59.2,29.98,NNW,342,5.0,8.0,45,0.00,,,0.01,Wunderground v.1.15,2013-09-05 21:23:00,
2013-09-05 17:29:00,82.5,58.4,29.98,NW,314,5.0,10.0,44,0.00,,,0.01,Wunderground v.1.15,2013-09-05 21:29:00,
2013-09-05 17:34:00,82.3,59.4,29.98,WNW,302,5.0,6.0,46,0.00,,,0.01,Wunderground v.1.15,2013-09-05 21:34:00,
2013-09-05 17:40:00,82.0,58.6,29.98,NNW,331,5.0,5.0,45,0.00,,,0.01,Wunderground v.1.15,2013-09-05 21:40:00,
2013-09-05 17:45:00,81.7,57.7,29.98,NW,314,6.0,7.0,44,0.00,,,0.01,Wunderground v.1.15,2013-09-05 21:45:00,
2013-09-05 17:50:00,81.9,57.8,29.98,NW,326,5.0,7.0,44,0.00,,,0.01,Wunderground v.1.15,2013-09-05 21:50:00,
2013-09-05 17:56:00,81.6,58.2,29.99,WNW,289,5.0,9.0,45,0.00,,,0.01,Wunderground v.1.15,2013-09-05 21:56:00,
2013-09-05 18:02:00,81.3,59.1,29.99,NNW,331,5.0,6.0,47,0.00,,,0.01,Wunderground v.1.15,2013-09-05 22:02:00,
2013-09-05 18:08:00,81.1,58.4,29.99,NNW,333,4.0,9.0,46,0.00,,,0.01,Wunderground v.1.15,2013-09-05 22:08:00,
2013-09-05 18:14:00,80.8,58.1,29.99,NW,308,5.0,9.0,46,0.00,,,0.01,Wunderground v.1.15,2013-09-05 22:14:00,
2013-09-05 18:19:00,80.6,58.5,29.99,NW,318,5.0,9.0,47,0.00,,,0.01,Wunderground v.1.15,2013-09-05 22:19:00,
2013-09-05 18:24:00,80.4,58.3,29.99,WNW,293,5.0,8.0,47,0.00,,,0.01,Wunderground v.1.15,2013-09-05 22:24:00,
2013-09-05 18:30:00,80.2,58.1,29.99,NW,316,4.0,4.0,47,0.00,,,0.01,Wunderground v.1.15,2013-09-05 22:30:00,
2013-09-05 18:36:00,79.8,58.4,29.99,NNW,332,4.0,7.0,48,0.00,,,0.01,Wunderground v.1.15,2013-09-05 22:36:00,
2013-09-05 18:42:00,79.4,58.6,29.99,NNW,339,5.0,5.0,49,0.00,,,0.01,Wunderground v.1.15,2013-09-05 22:42:00,
2013-09-05 18:48:00,79.0,58.8,29.99,North,8,4.0,6.0,50,0.00,,,0.01,Wunderground v.1.15,2013-09-05 22:48:00,
2013-09-05 18:54:00,78.6,58.4,29.99,NNW,347,4.0,7.0,50,0.00,,,0.01,Wunderground v.1.15,2013-09-05 22:54:00,
2013-09-05 19:00:00,78.2,58.0,30.00,NW,317,3.0,5.0,50,0.00,,,0.01,Wunderground v.1.15,2013-09-05 23:00:00,
2013-09-05 19:06:00,77.8,58.2,30.00,NNW,339,4.0,5.0,51,0.00,,,0.01,Wunderground v.1.15,2013-09-05 23:06:00,
2013-09-05 19:12:00,77.3,58.3,30.00,NW,304,4.0,4.0,52,0.00,,,0.01,Wunderground v.1.15,2013-09-05 23:12:00,
2013-09-05 19:18:00,76.8,57.8,30.00,North,349,4.0,6.0,52,0.00,,,0.01,Wunderground v.1.15,2013-09-05 23:18:00,
2013-09-05 19:24:00,76.2,58.3,30.00,NNW,342,3.0,5.0,54,0.00,,,0.01,Wunderground v.1.15,2013-09-05 23:24:00,
2013-09-05 19:30:00,75.6,57.8,30.00,NNW,334,3.0,3.0,54,0.00,,,0.01,Wunderground v.1.15,2013-09-05 23:30:00,
2013-09-05 19:36:00,75.1,57.8,30.00,North,350,2.0,3.0,55,0.00,,,0.01,Wunderground v.1.15,2013-09-05 23:36:00,
2013-09-05 19:41:00,74.7,58.0,30.01,NNW,339,2.0,2.0,56,0.00,,,0.01,Wunderground v.1.15,2013-09-05 23:41:00,
2013-09-05 19:47:00,74.4,57.7,30.01,North,354,3.0,3.0,56,0.00,,,0.01,Wunderground v.1.15,2013-09-05 23:47:00,
2013-09-05 19:53:00,74.0,57.8,30.01,NNW,338,3.0,4.0,57,0.00,,,0.01,Wunderground v.1.15,2013-09-05 23:53:00,
2013-09-05 19:59:00,73.7,58.0,30.01,North,4,2.0,4.0,58,0.00,,,0.01,Wunderground v.1.15,2013-09-05 23:59:00,
2013-09-05 20:04:00,73.4,58.2,30.02,North,4,1.0,2.0,59,0.00,,,0.01,Wunderground v.1.15,2013-09-06 00:04:00,
2013-09-05 20:10:00,73.1,57.9,30.02,North,359,0.0,0.0,59,0.00,,,0.01,Wunderground v.1.15,2013-09-06 00:10:00,
2013-09-05 20:16:00,72.7,58.0,30.02,North,359,0.0,0.0,60,0.00,,,0.01,Wunderground v.1.15,2013-09-06 00:16:00,
2013-09-05 20:22:00,72.3,58.1,30.03,North,359,0.0,0.0,61,0.00,,,0.01,Wunderground v.1.15,2013-09-06 00:22:00,
2013-09-05 20:28:00,71.9,58.2,30.03,North,359,0.0,0.0,62,0.00,,,0.01,Wunderground v.1.15,2013-09-06 00:28:00,
2013-09-05 20:34:00,71.7,58.4,30.03,NNE,31,0.0,2.0,63,0.00,,,0.01,Wunderground v.1.15,2013-09-06 00:34:00,
2013-09-05 20:40:00,71.3,58.1,30.03,NNE,32,1.0,1.0,63,0.00,,,0.01,Wunderground v.1.15,2013-09-06 00:40:00,
2013-09-05 20:46:00,70.9,58.1,30.03,NNE,32,0.0,1.0,64,0.00,,,0.01,Wunderground v.1.15,2013-09-06 00:46:00,
2013-09-05 20:52:00,70.4,58.1,30.04,NNE,32,0.0,0.0,65,0.00,,,0.01,Wunderground v.1.15,2013-09-06 00:52:00,
2013-09-05 20:58:00,70.0,58.5,30.04,NNE,32,0.0,0.0,67,0.00,,,0.01,Wunderground v.1.15,2013-09-06 00:58:00,
2013-09-05 21:03:00,69.7,58.3,30.04,NNE,32,0.0,0.0,67,0.00,,,0.01,Wunderground v.1.15,2013-09-06 01:03:00,
2013-09-05 21:09:00,69.2,58.2,30.04,NNE,32,0.0,0.0,68,0.00,,,0.01,Wunderground v.1.15,2013-09-06 01:09:00,
2013-09-05 21:15:00,68.7,58.5,30.04,NNE,32,0.0,0.0,70,0.00,,,0.01,Wunderground v.1.15,2013-09-06 01:15:00,
2013-09-05 21:21:00,68.2,57.6,30.05,NNE,32,0.0,0.0,69,0.00,,,0.01,Wunderground v.1.15,2013-09-06 01:21:00,
2013-09-05 21:27:00,68.0,57.4,30.05,NNE,32,0.0,0.0,69,0.00,,,0.01,Wunderground v.1.15,2013-09-06 01:27:00,
2013-09-05 21:32:00,67.8,57.7,30.05,NNE,32,0.0,0.0,70,0.00,,,0.01,Wunderground v.1.15,2013-09-06 01:32:00,
2013-09-05 21:38:00,67.5,58.2,30.05,NNE,32,0.0,0.0,72,0.00,,,0.01,Wunderground v.1.15,2013-09-06 01:38:00,
2013-09-05 21:44:00,67.2,57.9,30.05,NNE,32,0.0,0.0,72,0.00,,,0.01,Wunderground v.1.15,2013-09-06 01:44:00,
2013-09-05 21:50:00,66.9,58.0,30.05,NNE,32,0.0,0.0,73,0.00,,,0.01,Wunderground v.1.15,2013-09-06 01:50:00,
2013-09-05 21:55:00,66.7,58.1,30.06,NNE,32,0.0,0.0,74,0.00,,,0.01,Wunderground v.1.15,2013-09-06 01:55:00,
2013-09-05 22:01:00,66.5,58.0,30.06,NNE,32,0.0,0.0,74,0.00,,,0.01,Wunderground v.1.15,2013-09-06 02:01:00,
2013-09-05 22:07:00,66.2,58.0,30.06,NNE,32,0.0,0.0,75,0.00,,,0.01,Wunderground v.1.15,2013-09-06 02:07:00,
2013-09-05 22:12:00,65.9,58.1,30.06,NNE,32,0.0,0.0,76,0.00,,,0.01,Wunderground v.1.15,2013-09-06 02:12:00,
2013-09-05 22:18:00,65.6,58.2,30.06,NNE,32,0.0,0.0,77,0.00,,,0.01,Wunderground v.1.15,2013-09-06 02:18:00,
2013-09-05 22:23:00,65.4,58.4,30.06,NNE,32,0.0,0.0,78,0.00,,,0.01,Wunderground v.1.15,2013-09-06 02:23:00,
2013-09-05 22:28:00,65.3,58.3,30.07,NNE,32,0.0,0.0,78,0.00,,,0.01,Wunderground v.1.15,2013-09-06 02:28:00,
2013-09-05 22:34:00,65.2,58.2,30.07,NNE,32,0.0,0.0,78,0.00,,,0.01,Wunderground v.1.15,2013-09-06 02:34:00,
2013-09-05 22:40:00,65.1,58.4,30.07,NNE,32,0.0,0.0,79,0.00,,,0.01,Wunderground v.1.15,2013-09-06 02:40:00,
2013-09-05 22:45:00,64.9,58.2,30.07,NNE,32,0.0,0.0,79,0.00,,,0.01,Wunderground v.1.15,2013-09-06 02:45:00,
2013-09-05 22:50:00,64.7,58.0,30.07,NNE,32,0.0,0.0,79,0.00,,,0.01,Wunderground v.1.15,2013-09-06 02:50:00,
2013-09-05 22:55:00,64.6,57.9,30.08,NNE,32,0.0,0.0,79,0.00,,,0.01,Wunderground v.1.15,2013-09-06 02:55:00,
2013-09-05 23:01:00,64.4,58.1,30.08,NNE,32,0.0,0.0,80,0.00,,,0.01,Wunderground v.1.15,2013-09-06 03:01:00,
2013-09-05 23:07:00,64.4,58.1,30.08,NNE,32,0.0,0.0,80,0.00,,,0.01,Wunderground v.1.15,2013-09-06 03:07:00,
2013-09-05 23:13:00,64.3,58.0,30.08,NNE,32,0.0,0.0,80,0.00,,,0.01,Wunderground v.1.15,2013-09-06 03:13:00,
2013-09-05 23:18:00,64.3,58.0,30.09,NNE,32,0.0,0.0,80,0.00,,,0.01,Wunderground v.1.15,2013-09-06 03:18:00,
2013-09-05 23:24:00,64.1,58.1,30.08,NNE,32,0.0,0.0,81,0.00,,,0.01,Wunderground v.1.15,2013-09-06 03:24:00,
2013-09-05 23:30:00,63.8,57.9,30.08,NNE,32,0.0,0.0,81,0.00,,,0.01,Wunderground v.1.15,2013-09-06 03:30:00,
2013-09-05 23:36:00,63.6,58.0,30.09,NE,55,0.0,0.0,82,0.00,,,0.01,Wunderground v.1.15,2013-09-06 03:36:00,
2013-09-05 23:42:00,63.4,57.8,30.09,SW,226,0.0,0.0,82,0.00,,,0.01,Wunderground v.1.15,2013-09-06 03:42:00,
2013-09-05 23:48:00,63.3,57.7,30.09,SW,226,0.0,0.0,82,0.00,,,0.01,Wunderground v.1.15,2013-09-06 03:48:00,
2013-09-05 23:53:00,63.1,57.9,30.09,SW,220,0.0,0.0,83,0.00,,,0.01,Wunderground v.1.15,2013-09-06 03:53:00,
2013-09-05 23:58:00,63.0,57.8,30.09,SW,220,0.0,0.0,83,0.00,,,0.01,Wunderground v.1.15,2013-09-06 03:58:00,